CW7595 Weather Reports


Display with metric or nautical units.
time (UTC)temp
F
wind
direction
speed
MPH
gust
MPH
rain 1hr
in
rain 24hr
in
rain mn
in
humidity
%
barometer
mb
20260902123102 57 106 0.0 0.0 0.00 0.00 0.00 84 1022.2
20260902121553 56 104 0.0 2.0 0.00 0.00 0.00 85 1022.1
20260902120046 55 40 0.0 0.0 0.00 0.00 0.00 85 1022.1
20260902114540 54 40 0.0 0.0 0.00 0.00 0.00 85 1022.1
20260902113039 53 40 0.0 0.0 0.00 0.00 0.00 85 1022.4
20260902111546 52 40 0.0 0.0 0.00 0.00 0.00 86 1022.4
20260902110038 51 40 0.0 0.0 0.00 0.00 0.00 85 1022.4
20260902104536 50 40 0.0 0.0 0.00 0.00 0.00 85 1022.4
20260902103034 50 40 0.0 0.0 0.00 0.00 0.00 84 1022.2
20260902101535 49 40 0.0 0.0 0.00 0.00 0.00 84 1022.2
20260902100034 50 40 0.0 0.0 0.00 0.00 0.00 84 1022.1
20260902094530 50 40 0.0 0.0 0.00 0.00 0.00 84 1022.0
20260902093028 51 40 0.0 0.0 0.00 0.00 0.00 84 1021.9
20260902091526 51 40 0.0 0.0 0.00 0.00 0.00 84 1021.7
20260902090026 51 40 0.0 0.0 0.00 0.00 0.00 84 1021.7
20260902084525 51 40 0.0 0.0 0.00 0.00 0.00 84 1021.6
20260902083024 50 40 0.0 0.0 0.00 0.00 0.00 84 1021.6
20260902081523 50 40 0.0 0.0 0.00 0.00 0.00 83 1021.5
20260902080021 51 40 0.0 0.0 0.00 0.00 0.00 83 1021.4
20260902074518 51 40 0.0 0.0 0.00 0.00 0.00 83 1021.1
20260902073016 51 35 0.0 0.0 0.00 0.00 0.00 86 1021.1
20260902071519 52 35 0.0 0.0 0.00 0.00 0.00 83 1020.9
20260902070014 52 35 0.0 0.0 0.00 0.00 0.00 82 1020.9
20260902064512 52 35 0.0 0.0 0.00 0.00 0.00 82 1020.9
20260902063015 52 35 0.0 0.0 0.00 0.00 0.00 82 1020.9
20260902061510 52 35 0.0 0.0 0.00 0.00 0.00 82 1020.9
20260902060008 53 35 0.0 0.0 0.00 0.00 0.00 81 1020.7
20260902054506 53 35 0.0 0.0 0.00 0.00 0.00 81 1020.6
20260902053003 54 35 0.0 0.0 0.00 0.00 0.00 81 1020.6
20260902051605 54 35 0.0 0.0 0.00 0.00 0.00 80 1020.5
20260902050105 54 35 0.0 0.0 0.00 0.00 0.00 80 1020.4
20260902044601 55 69 0.0 0.0 0.00 0.00 0.00 80 1020.3
20260902043055 55 137 0.0 0.0 0.00 0.00 0.00 79 1020.0
20260902041553 55 114 0.0 0.0 0.00 0.00 0.00 78 1019.9
20260902040050 56 128 0.0 0.0 0.00 0.00 0.00 77 1019.8
20260902034550 56 123 0.0 0.0 0.00 0.00 0.00 77 1019.8
20260902033050 56 113 0.0 3.0 0.00 0.00 0.00 76 1019.7
20260902031550 57 70 0.0 1.0 0.00 0.00 0.00 74 1019.6
20260902030046 57 128 0.0 0.0 0.00 0.00 0.00 73 1019.5
20260902024554 58 128 0.0 0.0 0.00 0.00 0.00 70 1019.4
20260902023043 59 75 0.0 3.0 0.00 0.00 0.00 68 1019.3
20260902021544 60 76 0.0 4.0 0.00 0.00 0.00 67 1019.2
20260902020040 60 113 0.0 2.0 0.00 0.00 0.00 65 1019.1
20260902014540 60 101 0.0 1.0 0.00 0.00 0.00 64 1019.0
20260902013042 60 79 0.0 0.0 0.00 0.00 0.00 62 1019.0
20260902011540 60 80 0.0 0.0 0.00 0.00 0.00 62 1018.8
20260902010036 61 80 0.0 0.0 0.00 0.00 0.00 61 1018.8
20260902004536 61 80 0.0 0.0 0.00 0.00 0.00 61 1018.8
20260902003035 63 80 0.0 0.0 0.00 0.00 0.00 57 1018.8
20260902001533 64 77 1.0 3.0 0.00 0.00 0.00 51 1018.7
20260902000034 64 17 0.0 0.0 0.00 0.00 0.00 49 1018.4
20260901234531 64 17 0.0 0.0 0.00 0.00 0.00 50 1018.3
20260901233031 64 17 0.0 0.0 0.00 0.00 0.00 49 1018.1
20260901231530 64 17 0.0 0.0 0.00 0.00 0.00 50 1018.0
20260901230030 65 17 0.0 0.0 0.00 0.00 0.00 49 1017.9
20260901224535 66 17 0.0 0.0 0.00 0.00 0.00 47 1017.8
20260901223029 68 17 0.0 0.0 0.00 0.00 0.00 46 1017.6
20260901221527 70 17 0.0 0.0 0.00 0.00 0.00 43 1017.6
20260901220033 70 17 0.0 0.0 0.00 0.00 0.00 39 1017.5
20260901214526 70 17 0.0 0.0 0.00 0.00 0.00 38 1017.4
20260901213040 71 17 0.0 0.0 0.00 0.00 0.00 37 1017.4
20260901211526 71 355 0.0 0.0 0.00 0.00 0.00 35 1017.3
20260901210027 72 47 0.0 0.0 0.00 0.00 0.00 37 1017.3
20260901204532 72 46 0.0 0.0 0.00 0.00 0.00 36 1017.4
20260901203033 73 49 0.0 0.0 0.00 0.00 0.00 40 1017.4
20260901201522 74 49 0.0 0.0 0.00 0.00 0.00 34 1017.4
20260901200021 76 48 0.0 0.0 0.00 0.00 0.00 37 1017.4
20260901194520 77 85 0.0 5.0 0.00 0.00 0.00 36 1017.3
20260901193026 76 80 0.0 0.0 0.00 0.00 0.00 40 1017.3
20260901191515 76 329 0.0 0.0 0.00 0.00 0.00 34 1017.3
20260901190015 75 20 0.0 4.0 0.00 0.00 0.00 35 1017.4
20260901184529 75 213 0.0 5.0 0.00 0.00 0.00 34 1017.4
20260901183014 75 286 0.0 4.0 0.00 0.00 0.00 34 1017.3
20260901181509 74 84 0.0 6.0 0.00 0.00 0.00 38 1017.3
20260901180009 74 57 0.0 6.0 0.00 0.00 0.00 38 1017.4
20260901174526 74 101 0.0 5.0 0.00 0.00 0.00 36 1017.5
20260901173006 74 53 0.0 3.0 0.00 0.00 0.00 42 1017.5
20260901171505 73 355 0.0 3.0 0.00 0.00 0.00 48 1017.5
20260901170005 73 252 0.0 7.0 0.00 0.00 0.00 48 1017.3
20260901164502 73 335 0.0 0.0 0.00 0.00 0.00 50 1017.3
20260901163059 72 205 0.0 7.0 0.00 0.00 0.00 51 1017.5
20260901161612 71 34 0.0 7.0 0.00 0.00 0.00 49 1017.7
20260901160113 70 300 0.0 6.0 0.00 0.00 0.00 50 1017.7
20260901154553 69 31 1.0 5.0 0.00 0.00 0.00 50 1017.8
20260901153057 67 302 1.0 5.0 0.00 0.00 0.00 55 1017.9
20260901151544 66 32 0.0 1.0 0.00 0.00 0.00 57 1018.0
20260901150041 65 59 0.0 3.0 0.00 0.00 0.00 61 1018.1
20260901144538 64 175 0.0 3.0 0.00 0.00 0.00 63 1018.2
20260901143039 63 360 0.0 0.0 0.00 0.00 0.00 66 1018.3
20260901141532 62 349 0.0 0.0 0.00 0.00 0.00 68 1018.3
20260901140037 61 323 0.0 0.0 0.00 0.00 0.00 69 1018.3
20260901134526 60 285 0.0 0.0 0.00 0.00 0.00 74 1018.2
20260901133019 58 281 0.0 0.0 0.00 0.00 0.00 78 1018.2
20260901131516 56 275 0.0 0.0 0.00 0.00 0.00 82 1018.1
20260901130011 54 27 0.0 0.0 0.00 0.00 0.00 84 1018.1
20260901124520 52 30 0.0 0.0 0.00 0.00 0.00 85 1018.1